COSMOS 1150

导读

COSMOS 1150(宇宙1150)是苏联(独立后归属独联体CIS)于1980年1月14日发射的Cosmos系列卫星,该系列是苏联/俄罗斯规模最大的多功能卫星家族,涵盖军事侦察、空间物理探测、技术验证等任务。冷战背景下,这类卫星多服务于航天技术测试与军事应用,为独联体后续航天发展积累了低轨运行、载荷技术等关键经验,是独联体航天早期探索的重要组成部分。

Basic Information
目录编号:
11667
目录名称:
COSMOS 1150
国际标识:
1980-003A
轨道中心:
EARTH
卫星名称:
COSMOS 1150
卫星全名:
--
卫星状态:
在轨 (已飞行17043 天)
发射日期:
1980-01-14 UTC
国别 :
俄罗斯(独联体) (CIS)
星等 :
--
This satellite is enrolled in the Space Conjunction Data Service (SCDS) and the current flight risk assessment level is: No High Risk
Orbit Information
数据来源 国际轨道数据 AOE轨道数据
星历时间 2026-09-12T11:34:43+0800
9小时前
查看轨道信息
2026-09-10T23:00:00+0800
1天前
查看轨道信息
半长轴 7364.511km 7364.497km
偏心率 0.0033054 0.0033
轨道倾角 82.953° 82.953°
近地点辐角 43.542° 47.879°
升交点赤经 114.501° 115.624°
平近点角 76.180° 99.020°
近地点 962.031km 962.057km
远地点 1010.717km 1010.663km
周期 104.828分钟 104.827分钟
每日圈数 13.736843 13.736883
Detailed Information
使用方式:
暂无
2D Orbit Map
3D Orbit Map
Orbit Altitude Analysis Chart
Orbit Inclination Analysis Chart
Orbit Comprehensive Analysis Chart
View Comprehensive Chart
Miss Distance Evolution Trend with All Objects
Collision Probability Evolution Trend with All Objects